Location: Burgberg
(50.1428°N, 11.0671°E)
Time: 07:03:41
(UTC+00:00)

In-Cosmos 22 Rocket - Pass Details

Date: 26 January 2020
Orbit: 789 x 889 km, 81.2° (Epoch: 24 February)

Event Time Altitude Azimuth Distance (km) Brightness Sun altitude
Rises 05:22:33 0° 349° (NNW) 3,336 7.1 -15.2°
Reaches altitude 10° 05:24:59 10° 352° (N) 2,390 6.4 -14.8°
Maximum altitude 05:30:20 69° 75° (ENE) 851 4.4 -14.0°
Drops below altitude 10° 05:35:36 10° 159° (SSE) 2,349 7.0 -13.2°
Sets 05:37:58 0° 162° (SSE) 3,275 7.7 -12.8°
